TimeEST,TemperatureF,Dew PointF,Humidity,Sea Level PressureIn,VisibilityMPH,Wind Direction,Wind SpeedMPH,Gust SpeedMPH,PrecipitationIn,Events,Conditions,WindDirDegrees,DateUTC
12:53 AM,28.0,21.9,78,30.34,8.0,Calm,Calm,-,N/A,,Clear,0,2013-12-01 05:53:00
1:53 AM,28.9,21.9,75,30.31,10.0,NW,3.5,-,N/A,,Clear,320,2013-12-01 06:53:00
2:53 AM,28.0,21.9,78,30.30,10.0,Calm,Calm,-,N/A,,Clear,0,2013-12-01 07:53:00
3:53 AM,28.0,21.0,75,30.28,10.0,WNW,4.6,-,N/A,,Clear,290,2013-12-01 08:53:00
4:53 AM,28.0,21.9,78,30.25,10.0,North,4.6,-,N/A,,Clear,350,2013-12-01 09:53:00
5:53 AM,27.0,21.9,81,30.26,10.0,Calm,Calm,-,N/A,,Clear,0,2013-12-01 10:53:00
6:53 AM,27.0,21.0,78,30.26,10.0,Calm,Calm,-,N/A,,Clear,0,2013-12-01 11:53:00
7:53 AM,27.0,21.0,78,30.25,10.0,Calm,Calm,-,N/A,,Clear,0,2013-12-01 12:53:00
8:53 AM,30.9,26.1,82,30.25,10.0,Calm,Calm,-,N/A,,Clear,0,2013-12-01 13:53:00
9:53 AM,37.0,26.1,65,30.25,10.0,Calm,Calm,-,N/A,,Clear,0,2013-12-01 14:53:00
10:53 AM,43.0,25.0,49,30.22,10.0,Calm,Calm,-,N/A,,Clear,0,2013-12-01 15:53:00
11:53 AM,48.0,25.0,41,30.17,10.0,Variable,3.5,-,N/A,,Clear,0,2013-12-01 16:53:00
12:53 PM,52.0,27.0,38,30.12,10.0,Variable,3.5,-,N/A,,Clear,0,2013-12-01 17:53:00
1:53 PM,55.9,28.0,34,30.09,10.0,Calm,Calm,-,N/A,,Clear,0,2013-12-01 18:53:00
2:53 PM,55.9,28.9,36,30.06,10.0,Variable,3.5,-,N/A,,Clear,0,2013-12-01 19:53:00
3:53 PM,55.9,30.9,39,30.04,10.0,Calm,Calm,-,N/A,,Clear,0,2013-12-01 20:53:00
4:53 PM,54.0,32.0,43,30.05,10.0,Calm,Calm,-,N/A,,Clear,0,2013-12-01 21:53:00
5:53 PM,51.1,33.1,50,30.04,10.0,Calm,Calm,-,N/A,,Clear,0,2013-12-01 22:53:00
6:53 PM,48.0,33.1,56,30.04,10.0,SSW,3.5,-,N/A,,Clear,200,2013-12-01 23:53:00
7:53 PM,46.0,34.0,63,30.04,10.0,Calm,Calm,-,N/A,,Clear,0,2013-12-02 00:53:00
8:53 PM,45.0,34.0,65,30.03,10.0,Calm,Calm,-,N/A,,Clear,0,2013-12-02 01:53:00
9:53 PM,39.9,33.1,77,30.03,10.0,Calm,Calm,-,N/A,,Clear,0,2013-12-02 02:53:00
10:53 PM,37.9,33.1,83,30.01,10.0,Calm,Calm,-,N/A,,Clear,0,2013-12-02 03:53:00
11:53 PM,37.0,32.0,82,30.00,10.0,Calm,Calm,-,N/A,,Clear,0,2013-12-02 04:53:00